Station Historical Data
Daily Summary for May 31, 2011 Units:  English    Metric   Both
« Previous Day
Next Day »
Daily Weekly Monthly Yearly Custom
  High: Low: Average:
Temperature: 91.6 °F 71.7 °F 81.4 °F
Dew Point: 74.3 °F 66.1 °F 70.5 °F
Humidity: 90% 46% 72%
Wind Speed: 7.0mph 0.0mph 2mph
Wind Gust: 9.0mph - -
Wind- - South
Pressure: 30.20 in 30.08 in -
Precipitation: 0.00 in    
Historical Graphs
 
 
Tabular Data for May 31, 2011
Time Temperature Dew Point Pressure Wind Wind Speed Wind Gust Humidity Rainfall Rate (Hourly) Conditions
00:00 77.8 °F 71.1 °F 30.11 in ESE 2.0 mph 2.0 mph 80% 0.00 in
00:01 77.8 °F 71.1 °F 30.11 in ESE 2.0 mph 2.0 mph 80% 0.00 in
00:06 77.7 °F 71.4 °F 30.11 in ESE 1.0 mph 2.0 mph 81% 0.00 in
00:11 77.5 °F 71.6 °F 30.11 in ESE 1.0 mph 2.0 mph 82% 0.00 in
00:12 77.5 °F 71.6 °F 30.11 in ESE 1.0 mph 2.0 mph 82% 0.00 in
00:17 77.3 °F 71.4 °F 30.11 in Calm   1.0 mph 82% 0.00 in
00:22 77.3 °F 71.0 °F 30.11 in East 1.0 mph 2.0 mph 81% 0.00 in
00:27 77.2 °F 70.9 °F 30.11 in Calm   1.0 mph 81% 0.00 in
00:28 77.1 °F 70.8 °F 30.10 in Calm   1.0 mph 81% 0.00 in
00:32 76.9 °F 71.0 °F 30.10 in Calm   1.0 mph 82% 0.00 in
00:33 76.8 °F 70.9 °F 30.10 in East 1.0 mph 1.0 mph 82% 0.00 in
00:34 76.8 °F 70.9 °F 30.10 in East 1.0 mph 1.0 mph 82% 0.00 in
00:38 76.7 °F 70.8 °F 30.10 in Calm   2.0 mph 82% 0.00 in
00:43 76.7 °F 70.8 °F 30.10 in Calm   2.0 mph 82% 0.00 in
00:48 76.7 °F 70.8 °F 30.10 in Calm   1.0 mph 82% 0.00 in
00:53 76.6 °F 70.7 °F 30.10 in Calm   1.0 mph 82% 0.00 in
00:58 76.5 °F 70.6 °F 30.10 in Calm   1.0 mph 82% 0.00 in
00:59 76.5 °F 70.6 °F 30.10 in ESE 1.0 mph 1.0 mph 82% 0.00 in
01:04 76.4 °F 70.5 °F 30.10 in Calm     82% 0.00 in
01:09 76.2 °F 70.7 °F 30.10 in Calm     83% 0.00 in
01:14 75.9 °F 70.4 °F 30.10 in ESE 1.0 mph 1.0 mph 83% 0.00 in
01:19 76.1 °F 70.6 °F 30.10 in Calm   1.0 mph 83% 0.00 in
01:24 76.1 °F 70.6 °F 30.10 in Calm     83% 0.00 in
01:25 76.1 °F 70.6 °F 30.10 in Calm   1.0 mph 83% 0.00 in
01:29 76.1 °F 70.6 °F 30.10 in Calm   1.0 mph 83% 0.00 in
01:34 76.1 °F 70.6 °F 30.10 in Calm   1.0 mph 83% 0.00 in
01:35 76.1 °F 70.6 °F 30.10 in Calm   1.0 mph 83% 0.00 in
01:37 76.1 °F 70.9 °F 30.10 in Calm   1.0 mph 84% 0.00 in
01:42 76.0 °F 70.8 °F 30.09 in Calm   1.0 mph 84% 0.00 in
01:47 75.9 °F 70.7 °F 30.09 in SE 1.0 mph 1.0 mph 84% 0.00 in
01:52 75.9 °F 70.7 °F 30.09 in ESE 1.0 mph 2.0 mph 84% 0.00 in
01:53 75.9 °F 70.7 °F 30.09 in ESE 2.0 mph 2.0 mph 84% 0.00 in
01:57 76.1 °F 70.9 °F 30.09 in ESE 2.0 mph 2.0 mph 84% 0.00 in
01:58 76.1 °F 70.9 °F 30.09 in ESE 2.0 mph 2.0 mph 84% 0.00 in
02:03 76.2 °F 71.0 °F 30.09 in ESE 1.0 mph 2.0 mph 84% 0.00 in
02:08 76.2 °F 70.7 °F 30.09 in ESE 2.0 mph 2.0 mph 83% 0.00 in
02:13 76.1 °F 70.9 °F 30.09 in ESE 3.0 mph 3.0 mph 84% 0.00 in
02:18 75.9 °F 70.7 °F 30.08 in SE 2.0 mph 3.0 mph 84% 0.00 in
02:23 75.8 °F 70.6 °F 30.08 in ESE 2.0 mph 2.0 mph 84% 0.00 in
02:28 75.7 °F 70.5 °F 30.08 in ESE 2.0 mph 3.0 mph 84% 0.00 in
02:29 75.7 °F 70.5 °F 30.08 in ESE 2.0 mph 3.0 mph 84% 0.00 in
02:34 75.5 °F 70.7 °F 30.08 in ESE 2.0 mph 2.0 mph 85% 0.00 in
02:35 75.5 °F 70.7 °F 30.08 in ESE 2.0 mph 2.0 mph 85% 0.00 in
02:36 75.5 °F 70.7 °F 30.08 in ESE 2.0 mph 3.0 mph 85% 0.00 in
02:41 75.6 °F 70.4 °F 30.08 in ESE 3.0 mph 3.0 mph 84% 0.00 in
02:46 75.8 °F 70.3 °F 30.08 in ESE 3.0 mph 3.0 mph 83% 0.00 in
02:51 75.9 °F 70.4 °F 30.08 in ESE 2.0 mph 3.0 mph 83% 0.00 in
02:56 75.9 °F 70.0 °F 30.08 in ESE 2.0 mph 2.0 mph 82% 0.00 in
03:01 75.9 °F 70.4 °F 30.08 in ESE 2.0 mph 3.0 mph 83% 0.00 in
03:06 75.7 °F 70.2 °F 30.08 in ESE 2.0 mph 3.0 mph 83% 0.00 in
03:11 75.4 °F 69.9 °F 30.08 in ESE 2.0 mph 3.0 mph 83% 0.00 in
03:16 75.3 °F 70.1 °F 30.08 in ESE 1.0 mph 2.0 mph 84% 0.00 in
03:21 74.9 °F 69.7 °F 30.08 in ESE 2.0 mph 3.0 mph 84% 0.00 in
03:26 74.7 °F 69.9 °F 30.08 in ESE 3.0 mph 3.0 mph 85% 0.00 in
03:28 74.7 °F 69.9 °F 30.08 in ESE 2.0 mph 3.0 mph 85% 0.00 in
03:30 74.6 °F 69.8 °F 30.08 in ESE 2.0 mph 3.0 mph 85% 0.00 in
03:33 74.4 °F 69.6 °F 30.08 in SE 2.0 mph 2.0 mph 85% 0.00 in
03:35 74.4 °F 69.6 °F 30.08 in ESE 2.0 mph 2.0 mph 85% 0.00 in
03:40 74.1 °F 69.7 °F 30.08 in ESE 2.0 mph 2.0 mph 86% 0.00 in
03:45 73.9 °F 69.8 °F 30.08 in SE 1.0 mph 2.0 mph 87% 0.00 in
03:50 73.8 °F 69.7 °F 30.08 in SE 1.0 mph 2.0 mph 87% 0.00 in
03:52 73.7 °F 69.6 °F 30.08 in ESE 2.0 mph 2.0 mph 87% 0.00 in
03:55 73.8 °F 69.7 °F 30.08 in ESE 2.0 mph 2.0 mph 87% 0.00 in
03:57 73.8 °F 69.7 °F 30.08 in East 3.0 mph 3.0 mph 87% 0.00 in
03:59 73.8 °F 69.7 °F 30.09 in ESE 2.0 mph 3.0 mph 87% 0.00 in
04:04 73.8 °F 69.7 °F 30.09 in SE 3.0 mph 4.0 mph 87% 0.00 in
04:09 73.7 °F 69.6 °F 30.09 in ESE 2.0 mph 3.0 mph 87% 0.00 in
04:15 73.6 °F 69.5 °F 30.09 in ESE 2.0 mph 3.0 mph 87% 0.00 in
04:20 73.5 °F 69.7 °F 30.09 in ESE 2.0 mph 3.0 mph 88% 0.00 in
04:25 73.4 °F 69.6 °F 30.09 in ESE 2.0 mph 3.0 mph 88% 0.00 in
04:30 73.3 °F 69.5 °F 30.09 in SE 2.0 mph 3.0 mph 88% 0.00 in
04:31 73.3 °F 69.5 °F 30.09 in SE 1.0 mph 3.0 mph 88% 0.00 in
04:36 73.3 °F 69.5 °F 30.09 in SE 3.0 mph 3.0 mph 88% 0.00 in
04:41 73.4 °F 69.6 °F 30.09 in ESE 3.0 mph 3.0 mph 88% 0.00 in
04:46 73.3 °F 69.2 °F 30.09 in ESE 3.0 mph 4.0 mph 87% 0.00 in
04:51 73.3 °F 69.2 °F 30.09 in ESE 3.0 mph 4.0 mph 87% 0.00 in
04:52 73.3 °F 69.2 °F 30.09 in ESE 3.0 mph 4.0 mph 87% 0.00 in
04:54 73.3 °F 69.2 °F 30.09 in ESE 4.0 mph 4.0 mph 87% 0.00 in
04:57 73.2 °F 69.1 °F 30.09 in ESE 4.0 mph 4.0 mph 87% 0.00 in
04:59 73.2 °F 69.1 °F 30.09 in ESE 4.0 mph 4.0 mph 87% 0.00 in
05:04 73.1 °F 69.3 °F 30.10 in ESE 4.0 mph 5.0 mph 88% 0.00 in
05:10 73.1 °F 69.0 °F 30.10 in ESE 4.0 mph 5.0 mph 87% 0.00 in
05:15 73.1 °F 69.0 °F 30.10 in ESE 3.0 mph 4.0 mph 87% 0.00 in
05:20 73.0 °F 68.9 °F 30.10 in ESE 3.0 mph 3.0 mph 87% 0.00 in
05:25 72.9 °F 68.8 °F 30.10 in ESE 4.0 mph 4.0 mph 87% 0.00 in
05:26 72.9 °F 68.8 °F 30.10 in East 3.0 mph 4.0 mph 87% 0.00 in
05:27 72.9 °F 69.1 °F 30.10 in East 2.0 mph 4.0 mph 88% 0.00 in
05:31 72.9 °F 68.8 °F 30.10 in ESE 2.0 mph 3.0 mph 87% 0.00 in
05:32 72.8 °F 69.0 °F 30.10 in ESE 3.0 mph 3.0 mph 88% 0.00 in
05:35 72.8 °F 68.7 °F 30.10 in ESE 2.0 mph 3.0 mph 87% 0.00 in
05:37 72.7 °F 68.9 °F 30.10 in ESE 1.0 mph 2.0 mph 88% 0.00 in
05:42 72.6 °F 68.8 °F 30.10 in East 3.0 mph 3.0 mph 88% 0.00 in
05:48 72.6 °F 68.8 °F 30.10 in ESE 3.0 mph 3.0 mph 88% 0.00 in
05:53 72.6 °F 68.8 °F 30.11 in ESE 2.0 mph 3.0 mph 88% 0.00 in
05:54 72.5 °F 68.8 °F 30.11 in ESE 2.0 mph 3.0 mph 88% 0.00 in
05:58 72.5 °F 68.8 °F 30.11 in East 2.0 mph 2.0 mph 88% 0.00 in
06:03 72.3 °F 68.6 °F 30.11 in ESE 2.0 mph 3.0 mph 88% 0.00 in
06:08 72.3 °F 68.9 °F 30.11 in East 2.0 mph 2.0 mph 89% 0.00 in
06:09 72.3 °F 68.9 °F 30.11 in East 1.0 mph 2.0 mph 89% 0.00 in
06:14 72.2 °F 68.8 °F 30.11 in ESE 1.0 mph 2.0 mph 89% 0.00 in
06:15 72.2 °F 68.8 °F 30.11 in ESE 2.0 mph 2.0 mph 89% 0.00 in
06:20 72.1 °F 68.7 °F 30.11 in East 2.0 mph 3.0 mph 89% 0.00 in
06:25 72.0 °F 68.6 °F 30.12 in ESE 2.0 mph 3.0 mph 89% 0.00 in
06:30 72.0 °F 68.6 °F 30.12 in ESE 3.0 mph 3.0 mph 89% 0.00 in
06:31 72.0 °F 68.6 °F 30.12 in East 2.0 mph 3.0 mph 89% 0.00 in
06:33 71.9 °F 68.5 °F 30.12 in East 3.0 mph 3.0 mph 89% 0.00 in
06:36 71.8 °F 68.4 °F 30.12 in East 2.0 mph 3.0 mph 89% 0.00 in
06:41 71.7 °F 68.6 °F 30.12 in ESE 2.0 mph 3.0 mph 90% 0.00 in
06:46 71.8 °F 68.7 °F 30.12 in East 4.0 mph 4.0 mph 90% 0.00 in
06:51 71.8 °F 68.7 °F 30.12 in East 4.0 mph 4.0 mph 90% 0.00 in
06:52 71.8 °F 68.7 °F 30.12 in ESE 3.0 mph 4.0 mph 90% 0.00 in
06:53 71.8 °F 68.7 °F 30.12 in East 2.0 mph 4.0 mph 90% 0.00 in
06:56 71.8 °F 68.7 °F 30.12 in East 3.0 mph 3.0 mph 90% 0.00 in
06:57 71.8 °F 68.7 °F 30.12 in East 3.0 mph 3.0 mph 90% 0.00 in
06:58 71.7 °F 68.6 °F 30.12 in East 2.0 mph 3.0 mph 90% 0.00 in
07:02 71.8 °F 68.7 °F 30.12 in ESE 3.0 mph 3.0 mph 90% 0.00 in
07:07 71.8 °F 68.7 °F 30.13 in ESE 2.0 mph 4.0 mph 90% 0.00 in
07:12 71.9 °F 68.8 °F 30.12 in ESE 3.0 mph 4.0 mph 90% 0.00 in
07:13 72.0 °F 68.9 °F 30.12 in ESE 2.0 mph 3.0 mph 90% 0.00 in
07:18 72.1 °F 68.7 °F 30.12 in East 3.0 mph 3.0 mph 89% 0.00 in
07:23 72.4 °F 69.0 °F 30.12 in East 3.0 mph 3.0 mph 89% 0.00 in
07:28 72.7 °F 69.3 °F 30.12 in ESE 3.0 mph 4.0 mph 89% 0.00 in
07:33 73.1 °F 69.3 °F 30.13 in ESE 2.0 mph 3.0 mph 88% 0.00 in
07:34 73.2 °F 69.4 °F 30.13 in ESE 2.0 mph 3.0 mph 88% 0.00 in
07:37 73.4 °F 69.6 °F 30.13 in ESE 2.0 mph 3.0 mph 88% 0.00 in
07:38 73.5 °F 69.7 °F 30.14 in East 2.0 mph 3.0 mph 88% 0.00 in
07:43 73.8 °F 69.7 °F 30.14 in ESE 3.0 mph 3.0 mph 87% 0.00 in
07:48 74.1 °F 69.7 °F 30.14 in ESE 2.0 mph 3.0 mph 86% 0.00 in
07:53 74.4 °F 69.9 °F 30.14 in East 2.0 mph 2.0 mph 86% 0.00 in
07:54 74.5 °F 70.0 °F 30.14 in ESE 2.0 mph 2.0 mph 86% 0.00 in
07:59 74.8 °F 70.3 °F 30.14 in SE 2.0 mph 3.0 mph 86% 0.00 in
08:04 75.1 °F 69.9 °F 30.14 in East 3.0 mph 4.0 mph 84% 0.00 in
08:05 75.2 °F 70.0 °F 30.14 in ESE 3.0 mph 4.0 mph 84% 0.00 in
08:09 75.5 °F 70.3 °F 30.14 in ESE 4.0 mph 5.0 mph 84% 0.00 in
08:14 75.7 °F 70.2 °F 30.14 in ESE 2.0 mph 4.0 mph 83% 0.00 in
08:19 76.1 °F 70.6 °F 30.15 in ESE 2.0 mph 3.0 mph 83% 0.00 in
08:20 76.2 °F 70.7 °F 30.15 in ESE 1.0 mph 2.0 mph 83% 0.00 in
08:24 76.6 °F 71.1 °F 30.15 in East 2.0 mph 3.0 mph 83% 0.00 in
08:29 77.1 °F 71.2 °F 30.15 in ESE 3.0 mph 3.0 mph 82% 0.00 in
08:32 77.2 °F 70.9 °F 30.15 in ESE 2.0 mph 3.0 mph 81% 0.00 in
08:34 77.4 °F 71.1 °F 30.15 in SE 2.0 mph 3.0 mph 81% 0.00 in
08:35 77.5 °F 71.6 °F 30.16 in SE 1.0 mph 3.0 mph 82% 0.00 in
08:39 77.9 °F 70.9 °F 30.16 in ESE 3.0 mph 3.0 mph 79% 0.00 in
08:44 78.5 °F 71.1 °F 30.16 in SSE 2.0 mph 3.0 mph 78% 0.00 in
08:49 79.0 °F 71.6 °F 30.16 in SSE 2.0 mph 3.0 mph 78% 0.00 in
08:54 79.3 °F 71.5 °F 30.16 in SE 4.0 mph 4.0 mph 77% 0.00 in
08:59 79.6 °F 71.8 °F 30.16 in SE 4.0 mph 5.0 mph 77% 0.00 in
09:04 79.9 °F 70.5 °F 30.17 in SSE 4.0 mph 5.0 mph 73% 0.00 in
09:05 79.9 °F 70.5 °F 30.17 in SE 2.0 mph 5.0 mph 73% 0.00 in
09:09 80.1 °F 71.1 °F 30.17 in South 2.0 mph 4.0 mph 74% 0.00 in
09:14 80.6 °F 70.3 °F 30.17 in South 5.0 mph 5.0 mph 71% 0.00 in
09:19 80.5 °F 70.7 °F 30.18 in SSE 2.0 mph 4.0 mph 72% 0.00 in
09:24 80.4 °F 70.6 °F 30.18 in SSW 3.0 mph 6.0 mph 72% 0.00 in
09:25 80.4 °F 70.6 °F 30.18 in South 4.0 mph 6.0 mph 72% 0.00 in
09:29 80.6 °F 70.8 °F 30.18 in WSW 4.0 mph 5.0 mph 72% 0.00 in
09:30 80.6 °F 70.8 °F 30.18 in WSW 4.0 mph 5.0 mph 72% 0.00 in
09:31 80.6 °F 71.2 °F 30.18 in SW 3.0 mph 5.0 mph 73% 0.00 in
09:35 80.7 °F 71.7 °F 30.18 in SSW 3.0 mph 6.0 mph 74% 0.00 in
09:36 80.9 °F 71.4 °F 30.18 in South 1.0 mph 4.0 mph 73% 0.00 in
09:41 81.3 °F 72.2 °F 30.19 in SSE 1.0 mph 4.0 mph 74% 0.00 in
09:42 81.4 °F 72.3 °F 30.19 in South 4.0 mph 4.0 mph 74% 0.00 in
09:47 81.6 °F 70.9 °F 30.19 in West 3.0 mph 5.0 mph 70% 0.00 in
09:52 81.6 °F 70.9 °F 30.19 in SSW 2.0 mph 4.0 mph 70% 0.00 in
09:54 81.7 °F 71.4 °F 30.19 in SSW 4.0 mph 4.0 mph 71% 0.00 in
09:57 81.9 °F 72.0 °F 30.20 in SW 2.0 mph 4.0 mph 72% 0.00 in
09:59 82.0 °F 72.5 °F 30.19 in West 3.0 mph 5.0 mph 73% 0.00 in
10:04 82.2 °F 71.4 °F 30.19 in West 5.0 mph 5.0 mph 70% 0.00 in
10:09 82.3 °F 71.1 °F 30.19 in WSW 2.0 mph 5.0 mph 69% 0.00 in
10:14 82.9 °F 71.7 °F 30.20 in WSW 1.0 mph 4.0 mph 69% 0.00 in
10:19 83.4 °F 71.3 °F 30.20 in West 1.0 mph 3.0 mph 67% 0.00 in
10:24 83.4 °F 71.3 °F 30.20 in West 2.0 mph 4.0 mph 67% 0.00 in
10:29 83.7 °F 72.0 °F 30.20 in West 1.0 mph 3.0 mph 68% 0.00 in
10:30 83.7 °F 72.0 °F 30.20 in SW 2.0 mph 3.0 mph 68% 0.00 in
10:35 83.7 °F 71.6 °F 30.20 in NW 2.0 mph 5.0 mph 67% 0.00 in
10:36 83.7 °F 71.6 °F 30.20 in NW 2.0 mph 5.0 mph 67% 0.00 in
10:37 83.7 °F 72.5 °F 30.20 in West 4.0 mph 4.0 mph 69% 0.00 in
10:42 83.6 °F 71.9 °F 30.20 in West 2.0 mph 5.0 mph 68% 0.00 in
10:47 83.9 °F 72.2 °F 30.20 in SW 3.0 mph 5.0 mph 68% 0.00 in
10:52 84.2 °F 72.5 °F 30.20 in SW 5.0 mph 6.0 mph 68% 0.00 in
10:53 84.3 °F 72.2 °F 30.20 in WSW 3.0 mph 6.0 mph 67% 0.00 in
10:58 84.5 °F 71.0 °F 30.20 in West 1.0 mph 6.0 mph 64% 0.00 in
10:59 84.6 °F 71.6 °F 30.20 in WNW 5.0 mph 6.0 mph 65% 0.00 in
11:03 84.9 °F 70.9 °F 30.20 in West 6.0 mph 6.0 mph 63% 0.00 in
11:08 84.9 °F 71.8 °F 30.20 in WNW 2.0 mph 8.0 mph 65% 0.00 in
11:13 85.1 °F 70.6 °F 30.20 in SW 5.0 mph 7.0 mph 62% 0.00 in
11:18 85.2 °F 71.7 °F 30.20 in SW 3.0 mph 8.0 mph 64% 0.00 in
11:23 85.6 °F 71.6 °F 30.20 in WNW 5.0 mph 5.0 mph 63% 0.00 in
11:28 85.6 °F 71.1 °F 30.20 in WNW 3.0 mph 8.0 mph 62% 0.00 in
11:29 85.6 °F 71.1 °F 30.20 in SW 3.0 mph 8.0 mph 62% 0.00 in
11:31 85.6 °F 71.6 °F 30.20 in WNW 5.0 mph 7.0 mph 63% 0.00 in
11:34 85.9 °F 72.3 °F 30.20 in South 2.0 mph 6.0 mph 64% 0.00 in
11:35 86.0 °F 72.4 °F 30.20 in WNW 4.0 mph 6.0 mph 64% 0.00 in
11:37 86.2 °F 71.7 °F 30.20 in SSW 2.0 mph 6.0 mph 62% 0.00 in
11:42 86.5 °F 72.4 °F 30.20 in WNW 4.0 mph 7.0 mph 63% 0.00 in
11:47 86.3 °F 70.8 °F 30.20 in West 4.0 mph 6.0 mph 60% 0.00 in
11:48 86.2 °F 70.7 °F 30.20 in SW 4.0 mph 6.0 mph 60% 0.00 in
11:53 86.2 °F 70.7 °F 30.20 in West 2.0 mph 3.0 mph 60% 0.00 in
11:54 86.2 °F 70.7 °F 30.20 in NW 6.0 mph 6.0 mph 60% 0.00 in
11:58 86.6 °F 73.0 °F 30.20 in West 2.0 mph 4.0 mph 64% 0.00 in
11:59 86.7 °F 71.7 °F 30.20 in West 2.0 mph 3.0 mph 61% 0.00 in
12:04 87.1 °F 71.0 °F 30.20 in WNW 1.0 mph 7.0 mph 59% 0.00 in
12:09 87.1 °F 71.0 °F 30.20 in SW 3.0 mph 6.0 mph 59% 0.00 in
12:14 87.0 °F 70.9 °F 30.20 in SW 5.0 mph 7.0 mph 59% 0.00 in
12:15 87.0 °F 70.9 °F 30.20 in West 3.0 mph 7.0 mph 59% 0.00 in
12:19 87.0 °F 69.9 °F 30.20 in West 2.0 mph 7.0 mph 57% 0.00 in
12:25 87.5 °F 71.9 °F 30.20 in SSW 3.0 mph 3.0 mph 60% 0.00 in
12:30 88.3 °F 72.7 °F 30.20 in SSW 2.0 mph 4.0 mph 60% 0.00 in
12:35 88.7 °F 71.5 °F 30.20 in South 2.0 mph 9.0 mph 57% 0.00 in
12:36 88.8 °F 71.6 °F 30.20 in SSE 2.0 mph 9.0 mph 57% 0.00 in
12:37 88.8 °F 71.6 °F 30.20 in SW 3.0 mph 9.0 mph 57% 0.00 in
12:41 88.4 °F 69.7 °F 30.20 in WNW 2.0 mph 6.0 mph 54% 0.00 in
12:42 88.4 °F 71.2 °F 30.20 in North 4.0 mph 5.0 mph 57% 0.00 in
12:47 88.4 °F 69.7 °F 30.20 in WNW 2.0 mph 8.0 mph 54% 0.00 in
12:52 88.4 °F 70.7 °F 30.20 in SE 7.0 mph 7.0 mph 56% 0.00 in
12:53 88.5 °F 71.8 °F 30.20 in SSE 3.0 mph 7.0 mph 58% 0.00 in
12:57 88.7 °F 69.9 °F 30.20 in SSW 3.0 mph 6.0 mph 54% 0.00 in
12:59 88.8 °F 71.1 °F 30.20 in West 2.0 mph 6.0 mph 56% 0.00 in
13:04 88.9 °F 70.7 °F 30.20 in SW 4.0 mph 7.0 mph 55% 0.00 in
13:09 88.9 °F 69.6 °F 30.20 in East 1.0 mph 5.0 mph 53% 0.00 in
13:14 89.0 °F 70.2 °F 30.20 in WSW 6.0 mph 8.0 mph 54% 0.00 in
13:15 88.9 °F 70.7 °F 30.20 in West 2.0 mph 8.0 mph 55% 0.00 in
13:19 89.3 °F 72.1 °F 30.20 in SW 7.0 mph 7.0 mph 57% 0.00 in
13:20 89.5 °F 71.2 °F 30.20 in SW 3.0 mph 9.0 mph 55% 0.00 in
13:24 90.0 °F 72.2 °F 30.20 in NW 3.0 mph 4.0 mph 56% 0.00 in
13:25 89.9 °F 71.6 °F 30.20 in WNW 2.0 mph 4.0 mph 55% 0.00 in
13:29 89.5 °F 70.1 °F 30.19 in WNW 3.0 mph 5.0 mph 53% 0.00 in
13:30 89.3 °F 71.0 °F 30.20 in WNW 5.0 mph 5.0 mph 55% 0.00 in
13:35 87.7 °F 70.1 °F 30.20 in WNW 4.0 mph 6.0 mph 56% 0.00 in
13:37 87.4 °F 69.3 °F 30.20 in WNW 4.0 mph 6.0 mph 55% 0.00 in
13:42 87.9 °F 69.7 °F 30.20 in NW 4.0 mph 4.0 mph 55% 0.00 in
13:47 88.6 °F 68.2 °F 30.20 in North 3.0 mph 6.0 mph 51% 0.00 in
13:52 88.7 °F 68.8 °F 30.19 in NW 2.0 mph 3.0 mph 52% 0.00 in
13:53 88.8 °F 68.9 °F 30.19 in NW 2.0 mph 3.0 mph 52% 0.00 in
13:57 88.9 °F 70.1 °F 30.20 in West 2.0 mph 3.0 mph 54% 0.00 in
13:58 88.9 °F 69.6 °F 30.20 in NW 2.0 mph 4.0 mph 53% 0.00 in
14:02 89.2 °F 69.3 °F 30.20 in NW 5.0 mph 5.0 mph 52% 0.00 in
14:07 89.6 °F 70.2 °F 30.19 in NW 2.0 mph 4.0 mph 53% 0.00 in
14:12 90.0 °F 68.3 °F 30.19 in WSW 2.0 mph 4.0 mph 49% 0.00 in
14:18 90.4 °F 68.1 °F 30.19 in NNE 3.0 mph 4.0 mph 48% 0.00 in
14:23 90.3 °F 69.7 °F 30.19 in West 3.0 mph 6.0 mph 51% 0.00 in
14:28 89.2 °F 68.7 °F 30.19 in NNW 2.0 mph 6.0 mph 51% 0.00 in
14:33 88.2 °F 67.8 °F 30.19 in WNW 3.0 mph 4.0 mph 51% 0.00 in
14:34 88.2 °F 67.8 °F 30.19 in West 2.0 mph 4.0 mph 51% 0.00 in
14:35 88.2 °F 66.1 °F 30.19 in WSW 3.0 mph 4.0 mph 48% 0.00 in
14:39 88.7 °F 66.5 °F 30.18 in Calm   2.0 mph 48% 0.00 in
14:40 88.9 °F 66.7 °F 30.18 in Calm   1.0 mph 48% 0.00 in
14:45 90.3 °F 70.3 °F 30.18 in West 1.0 mph 2.0 mph 52% 0.00 in
14:50 91.3 °F 68.9 °F 30.18 in SE 2.0 mph 2.0 mph 48% 0.00 in
14:52 91.6 °F 69.8 °F 30.17 in NNW 3.0 mph 4.0 mph 49% 0.00 in
14:57 91.0 °F 69.8 °F 30.17 in North 2.0 mph 5.0 mph 50% 0.00 in
14:58 90.7 °F 68.9 °F 30.18 in North 4.0 mph 5.0 mph 49% 0.00 in
15:02 90.1 °F 69.0 °F 30.17 in NW 4.0 mph 4.0 mph 50% 0.00 in
15:07 89.0 °F 68.0 °F 30.17 in WNW 1.0 mph 3.0 mph 50% 0.00 in
15:12 88.7 °F 69.4 °F 30.17 in NW 2.0 mph 3.0 mph 53% 0.00 in
15:17 88.5 °F 68.1 °F 30.17 in WNW 2.0 mph 3.0 mph 51% 0.00 in
15:18 88.5 °F 68.1 °F 30.17 in WNW 2.0 mph 3.0 mph 51% 0.00 in
15:23 88.6 °F 68.2 °F 30.17 in North 2.0 mph 3.0 mph 51% 0.00 in
15:28 89.4 °F 69.5 °F 30.16 in ESE 1.0 mph 3.0 mph 52% 0.00 in
15:33 90.2 °F 67.3 °F 30.16 in NE 4.0 mph 5.0 mph 47% 0.00 in
15:34 90.2 °F 67.3 °F 30.16 in NE 4.0 mph 5.0 mph 47% 0.00 in
15:35 90.1 °F 67.2 °F 30.16 in ESE 2.0 mph 4.0 mph 47% 0.00 in
15:39 90.2 °F 66.6 °F 30.16 in NE 3.0 mph 4.0 mph 46% 0.00 in
15:44 90.2 °F 68.5 °F 30.16 in WNW 2.0 mph 4.0 mph 49% 0.00 in
15:49 90.2 °F 71.3 °F 30.16 in West 2.0 mph 4.0 mph 54% 0.00 in
15:54 89.9 °F 67.6 °F 30.16 in NE 1.0 mph 5.0 mph 48% 0.00 in
15:59 89.9 °F 68.2 °F 30.16 in NNW 2.0 mph 3.0 mph 49% 0.00 in
16:04 89.5 °F 70.1 °F 30.15 in NE 2.0 mph 3.0 mph 53% 0.00 in
16:05 89.5 °F 71.2 °F 30.15 in NE 2.0 mph 3.0 mph 55% 0.00 in
16:09 89.7 °F 69.8 °F 30.15 in East 2.0 mph 3.0 mph 52% 0.00 in
16:10 89.8 °F 68.1 °F 30.15 in ENE 1.0 mph 3.0 mph 49% 0.00 in
16:15 90.2 °F 70.2 °F 30.15 in ESE 3.0 mph 3.0 mph 52% 0.00 in
16:20 90.7 °F 69.5 °F 30.15 in ENE 1.0 mph 3.0 mph 50% 0.00 in
16:25 90.9 °F 68.5 °F 30.15 in North 5.0 mph 6.0 mph 48% 0.00 in
16:27 90.8 °F 68.4 °F 30.15 in WNW 2.0 mph 6.0 mph 48% 0.00 in
16:30 90.8 °F 70.2 °F 30.15 in NNE 1.0 mph 5.0 mph 51% 0.00 in
16:32 90.8 °F 70.2 °F 30.15 in NE 6.0 mph 6.0 mph 51% 0.00 in
16:35 90.8 °F 69.6 °F 30.15 in NNW 2.0 mph 6.0 mph 50% 0.00 in
16:36 90.7 °F 68.9 °F 30.15 in NE 3.0 mph 6.0 mph 49% 0.00 in
16:40 90.5 °F 68.8 °F 30.14 in NE 3.0 mph 6.0 mph 49% 0.00 in
16:41 90.4 °F 67.4 °F 30.14 in North 1.0 mph 6.0 mph 47% 0.00 in
16:46 90.6 °F 69.4 °F 30.15 in North 3.0 mph 6.0 mph 50% 0.00 in
16:52 90.4 °F 68.1 °F 30.14 in ENE 2.0 mph 6.0 mph 48% 0.00 in
16:53 90.3 °F 68.0 °F 30.15 in Calm   6.0 mph 48% 0.00 in
16:57 90.5 °F 69.3 °F 30.14 in NNE 3.0 mph 4.0 mph 50% 0.00 in
16:58 90.5 °F 68.2 °F 30.14 in NNW 2.0 mph 4.0 mph 48% 0.00 in
17:03 90.8 °F 68.4 °F 30.14 in East 1.0 mph 3.0 mph 48% 0.00 in
17:08 91.1 °F 68.7 °F 30.14 in NW 2.0 mph 4.0 mph 48% 0.00 in
17:09 91.1 °F 68.7 °F 30.14 in NW 2.0 mph 4.0 mph 48% 0.00 in
17:14 90.7 °F 68.3 °F 30.14 in WNW 5.0 mph 6.0 mph 48% 0.00 in
17:19 90.5 °F 71.1 °F 30.14 in WNW 5.0 mph 5.0 mph 53% 0.00 in
17:24 90.4 °F 68.1 °F 30.14 in WNW 3.0 mph 4.0 mph 48% 0.00 in
17:29 90.2 °F 67.9 °F 30.14 in WNW 4.0 mph 4.0 mph 48% 0.00 in
17:30 90.2 °F 68.5 °F 30.14 in WNW 2.0 mph 4.0 mph 49% 0.00 in
17:33 90.2 °F 67.9 °F 30.14 in WNW 5.0 mph 5.0 mph 48% 0.00 in
17:35 90.1 °F 69.0 °F 30.14 in WNW 4.0 mph 5.0 mph 50% 0.00 in
17:39 89.7 °F 69.2 °F 30.14 in NW 4.0 mph 7.0 mph 51% 0.00 in
17:44 89.4 °F 68.9 °F 30.14 in West 3.0 mph 5.0 mph 51% 0.00 in
17:49 88.6 °F 68.7 °F 30.14 in WNW 3.0 mph 5.0 mph 52% 0.00 in
17:54 88.0 °F 69.3 °F 30.14 in WNW 3.0 mph 3.0 mph 54% 0.00 in
17:55 88.1 °F 70.4 °F 30.14 in WNW 4.0 mph 4.0 mph 56% 0.00 in
17:59 88.5 °F 69.8 °F 30.14 in WNW 2.0 mph 3.0 mph 54% 0.00 in
18:04 88.9 °F 70.1 °F 30.14 in WNW 3.0 mph 3.0 mph 54% 0.00 in
18:09 88.7 °F 69.9 °F 30.14 in WNW 4.0 mph 5.0 mph 54% 0.00 in
18:14 87.8 °F 70.7 °F 30.14 in WNW 2.0 mph 4.0 mph 57% 0.00 in
18:19 87.7 °F 72.6 °F 30.13 in NW 1.0 mph 2.0 mph 61% 0.00 in
18:24 88.5 °F 71.3 °F 30.14 in WNW 2.0 mph 2.0 mph 57% 0.00 in
18:29 89.0 °F 70.8 °F 30.13 in NW 2.0 mph 3.0 mph 55% 0.00 in
18:30 89.0 °F 70.8 °F 30.13 in WNW 2.0 mph 3.0 mph 55% 0.00 in
18:31 89.1 °F 71.9 °F 30.13 in NNW 1.0 mph 3.0 mph 57% 0.00 in
18:32 89.2 °F 72.0 °F 30.13 in NW 2.0 mph 2.0 mph 57% 0.00 in
18:35 89.4 °F 71.7 °F 30.13 in WNW 1.0 mph 3.0 mph 56% 0.00 in
18:36 89.4 °F 71.1 °F 30.14 in WNW 2.0 mph 4.0 mph 55% 0.00 in
18:39 89.4 °F 70.6 °F 30.14 in NW 3.0 mph 3.0 mph 54% 0.00 in
18:41 89.4 °F 70.0 °F 30.14 in NW 3.0 mph 4.0 mph 53% 0.00 in
18:46 89.5 °F 70.7 °F 30.13 in NW 2.0 mph 3.0 mph 54% 0.00 in
18:51 89.4 °F 70.6 °F 30.14 in WNW 4.0 mph 6.0 mph 54% 0.00 in
18:52 89.3 °F 70.5 °F 30.13 in NW 3.0 mph 6.0 mph 54% 0.00 in
18:53 89.3 °F 71.0 °F 30.14 in NW 3.0 mph 6.0 mph 55% 0.00 in
18:56 89.2 °F 71.5 °F 30.13 in NW 3.0 mph 5.0 mph 56% 0.00 in
18:57 89.1 °F 71.4 °F 30.13 in NW 4.0 mph 4.0 mph 56% 0.00 in
18:58 89.1 °F 71.4 °F 30.13 in NW 5.0 mph 5.0 mph 56% 0.00 in
19:01 88.9 °F 71.2 °F 30.14 in NW 4.0 mph 5.0 mph 56% 0.00 in
19:03 88.8 °F 72.6 °F 30.14 in NW 4.0 mph 5.0 mph 59% 0.00 in
19:06 88.6 °F 72.4 °F 30.13 in NW 3.0 mph 5.0 mph 59% 0.00 in
19:11 88.5 °F 71.3 °F 30.13 in NW 3.0 mph 5.0 mph 57% 0.00 in
19:16 88.5 °F 70.8 °F 30.13 in NW 2.0 mph 3.0 mph 56% 0.00 in
19:22 88.6 °F 72.4 °F 30.13 in NW 2.0 mph 2.0 mph 59% 0.00 in
19:27 88.6 °F 71.9 °F 30.13 in NNW 4.0 mph 4.0 mph 58% 0.00 in
19:29 88.5 °F 72.8 °F 30.13 in NW 1.0 mph 4.0 mph 60% 0.00 in
19:32 88.5 °F 71.8 °F 30.13 in WNW 2.0 mph 3.0 mph 58% 0.00 in
19:33 88.5 °F 71.8 °F 30.13 in WNW 1.0 mph 3.0 mph 58% 0.00 in
19:34 88.4 °F 72.8 °F 30.13 in NW 1.0 mph 3.0 mph 60% 0.00 in
19:35 88.4 °F 72.8 °F 30.13 in NW 1.0 mph 2.0 mph 60% 0.00 in
19:39 88.3 °F 72.2 °F 30.13 in WNW 1.0 mph 2.0 mph 59% 0.00 in
19:44 88.1 °F 72.5 °F 30.13 in WNW 1.0 mph 2.0 mph 60% 0.00 in
19:49 87.7 °F 72.6 °F 30.13 in WNW 1.0 mph 1.0 mph 61% 0.00 in
19:54 87.0 °F 72.9 °F 30.13 in Calm   1.0 mph 63% 0.00 in
19:55 86.9 °F 72.8 °F 30.13 in WNW 1.0 mph 1.0 mph 63% 0.00 in
20:00 86.4 °F 72.8 °F 30.13 in Calm   1.0 mph 64% 0.00 in
20:05 85.9 °F 72.8 °F 30.13 in Calm   1.0 mph 65% 0.00 in
20:06 85.9 °F 72.8 °F 30.13 in Calm     65% 0.00 in
20:11 85.6 °F 72.5 °F 30.13 in Calm     65% 0.00 in
20:16 85.2 °F 72.6 °F 30.13 in Calm     66% 0.00 in
20:21 84.7 °F 73.0 °F 30.13 in Calm     68% 0.00 in
20:26 84.2 °F 72.5 °F 30.13 in Calm     68% 0.00 in
20:31 83.5 °F 73.5 °F 30.13 in WNW 1.0 mph 1.0 mph 72% 0.00 in
20:32 83.4 °F 73.4 °F 30.13 in WNW 1.0 mph 1.0 mph 72% 0.00 in
20:36 82.6 °F 73.5 °F 30.13 in Calm   1.0 mph 74% 0.00 in
20:37 82.5 °F 73.4 °F 30.13 in Calm   1.0 mph 74% 0.00 in
20:42 82.0 °F 73.3 °F 30.13 in Calm     75% 0.00 in
20:47 81.6 °F 73.7 °F 30.13 in Calm     77% 0.00 in
20:52 81.1 °F 74.3 °F 30.13 in Calm     80% 0.00 in
20:53 81.0 °F 74.2 °F 30.13 in Calm     80% 0.00 in
20:57 80.6 °F 73.9 °F 30.13 in Calm     80% 0.00 in
20:58 80.5 °F 74.1 °F 30.13 in Calm     81% 0.00 in
20:59 80.5 °F 74.1 °F 30.13 in Calm     81% 0.00 in
21:03 80.2 °F 74.2 °F 30.13 in Calm     82% 0.00 in
21:04 80.1 °F 74.1 °F 30.13 in Calm     82% 0.00 in
21:08 79.7 °F 73.7 °F 30.13 in Calm     82% 0.00 in
21:09 79.7 °F 73.7 °F 30.13 in Calm     82% 0.00 in
21:14 79.5 °F 73.9 °F 30.13 in Calm     83% 0.00 in
21:19 79.2 °F 73.9 °F 30.13 in Calm     84% 0.00 in
21:24 78.6 °F 73.0 °F 30.13 in Calm     83% 0.00 in
21:29 78.6 °F 73.0 °F 30.13 in Calm     83% 0.00 in
21:32 78.6 °F 72.7 °F 30.13 in Calm     82% 0.00 in
21:34 78.6 °F 72.3 °F 30.13 in Calm     81% 0.00 in
21:35 78.6 °F 72.3 °F 30.13 in Calm     81% 0.00 in
21:37 78.5 °F 72.6 °F 30.13 in Calm     82% 0.00 in
21:42 78.2 °F 71.2 °F 30.13 in Calm     79% 0.00 in
21:43 78.1 °F 71.1 °F 30.13 in Calm     79% 0.00 in
21:47 78.3 °F 70.9 °F 30.13 in Calm     78% 0.00 in
21:53 78.1 °F 72.2 °F 30.13 in Calm     82% 0.00 in
21:54 77.8 °F 71.9 °F 30.13 in Calm     82% 0.00 in
21:56 77.6 °F 72.0 °F 30.13 in Calm     83% 0.00 in
21:59 77.3 °F 72.4 °F 30.13 in Calm     85% 0.00 in
22:01 77.2 °F 73.0 °F 30.13 in Calm     87% 0.00 in
22:06 76.9 °F 72.4 °F 30.13 in Calm     86% 0.00 in
22:11 76.9 °F 71.3 °F 30.14 in Calm     83% 0.00 in
22:16 77.2 °F 71.3 °F 30.13 in Calm     82% 0.00 in
22:21 77.1 °F 71.2 °F 30.14 in Calm     82% 0.00 in
22:22 77.1 °F 71.2 °F 30.14 in Calm     82% 0.00 in
22:27 77.1 °F 70.8 °F 30.14 in Calm     81% 0.00 in
22:28 77.1 °F 71.5 °F 30.14 in Calm     83% 0.00 in
22:32 76.8 °F 71.6 °F 30.14 in Calm     84% 0.00 in
22:33 76.7 °F 71.5 °F 30.14 in Calm     84% 0.00 in
22:36 76.4 °F 71.2 °F 30.14 in Calm     84% 0.00 in
22:38 76.4 °F 70.9 °F 30.14 in Calm     83% 0.00 in
22:43 76.3 °F 71.1 °F 30.15 in Calm     84% 0.00 in
22:48 75.9 °F 71.4 °F 30.15 in Calm     86% 0.00 in
22:53 75.7 °F 71.2 °F 30.15 in Calm     86% 0.00 in
22:54 75.7 °F 71.2 °F 30.15 in Calm     86% 0.00 in
22:59 75.4 °F 70.9 °F 30.15 in Calm     86% 0.00 in
23:04 75.4 °F 71.6 °F 30.16 in Calm     88% 0.00 in
23:09 75.4 °F 71.6 °F 30.16 in Calm     88% 0.00 in
23:14 75.4 °F 71.6 °F 30.16 in Calm     88% 0.00 in
23:19 75.2 °F 71.7 °F 30.16 in Calm     89% 0.00 in
23:24 74.9 °F 71.4 °F 30.16 in Calm     89% 0.00 in
23:29 74.7 °F 71.2 °F 30.16 in Calm     89% 0.00 in
23:34 74.5 °F 71.1 °F 30.16 in Calm     89% 0.00 in
23:35 74.5 °F 71.1 °F 30.16 in Calm     89% 0.00 in
23:36 74.5 °F 71.1 °F 30.16 in Calm     89% 0.00 in
23:40 74.4 °F 71.3 °F 30.16 in Calm     90% 0.00 in
23:41 74.3 °F 71.2 °F 30.16 in Calm     90% 0.00 in
23:47 74.2 °F 71.1 °F 30.16 in Calm     90% 0.00 in
23:52 74.5 °F 70.4 °F 30.16 in Calm     87% 0.00 in
23:57 74.7 °F 70.6 °F 30.16 in Calm     87% 0.00 in
23:58 74.7 °F 70.6 °F 30.16 in Calm     87% 0.00 in
Compliments of Weather Underground